This is the latest recevied weather packets stored in our database for station/object N1TKS. If no packets are shown the sender has not sent any weather packets the latest 10 day(s).
| Time | Temp. | Humidity | Pressure | Rain* | Wind** | Luminosity | Snow |
|---|---|---|---|---|---|---|---|
| 1777463580 | 12.22° C | 77% | 1016.7 hPa | 0 mm | - | - | - |
| 1777463514 | 12.22° C | 77% | 1016.7 hPa | 0 mm | - | - | - |
| 1777463214 | 12.22° C | 77% | 1016.8 hPa | 0 mm | - | - | - |
| 1777462916 | 12.22° C | 78% | 1017 hPa | 0 mm | - | - | - |
| 1777462837 | 12.22° C | 79% | 1017.1 hPa | 0 mm | - | - | - |
| 1777462662 | 12.22° C | 79% | 1017.1 hPa | 0 mm | - | - | - |
| 1777462613 | 12.22° C | 79% | 1017.1 hPa | 0 mm | - | - | - |
| 1777462258 | 11.67° C | 81% | 1017.3 hPa | 0 mm | - | - | - |
| 1777462014 | 11.67° C | 81% | 1017.3 hPa | 0 mm | - | - | - |
| 1777461714 | 11.11° C | 81% | 1017.4 hPa | 0 mm | - | - | - |
| 1777461417 | 11.11° C | 82% | 1017.4 hPa | 0 mm | - | - | - |
| 1777461170 | 10.56° C | 83% | 1017.3 hPa | 0 mm | - | - | - |
| 1777461118 | 11.11° C | 83% | 1017.3 hPa | 0 mm | - | - | - |
| 1777460999 | 10.56° C | 83% | 1017.4 hPa | 0 mm | - | - | - |
| 1777460953 | 10.56° C | 83% | 1017.4 hPa | 0 mm | - | - | - |
| 1777460814 | 10.56° C | 83% | 1017.4 hPa | 0 mm | - | - | - |
| 1777460352 | 10.56° C | 83% | 1017.3 hPa | 0 mm | - | - | - |
| 1777460213 | 10.56° C | 83% | 1017.3 hPa | 0 mm | - | - | - |
| 1777459914 | 10.56° C | 83% | 1017.2 hPa | 0 mm | - | - | - |
| 1777459481 | 10° C | 83% | 1017.2 hPa | 0 mm | - | - | - |
| 1777459314 | 10° C | 83% | 1017.2 hPa | 0 mm | - | - | - |
| 1777459242 | 9.44° C | 83% | 1017.1 hPa | 0 mm | - | - | - |
| 1777459142 | 10° C | 83% | 1017.2 hPa | 0 mm | - | - | - |
| 1777459013 | 10° C | 83% | 1017.2 hPa | 0 mm | - | - | - |
| 1777458904 | 10° C | 83% | 1017.2 hPa | 0 mm | - | - | - |
* Rain latest hour (hover to see other rain measurements)
** Current wind speed in m/s (hover to see current wind gust speed)